Location: Applecreek Village
(41.3528°N, 81.4956°W)
Time: 22:55:07
(UTC+00:00)

BlueWalker 3 - Visible Passes

Search period start: 13 October 2024 00:00
Search period end: 23 October 2024 00:00
Orbit: 472 x 484 km, 53.2° (Epoch: 13 October)

Date Brightness Start Highest point End Pass type
(mag) Time Alt. Az. Time Alt. Az. Time Alt. Az.
13 Oct 4.5 09:15:46 14° NNE 09:15:46 14° NNE 09:16:43 10° NNE visible
13 Oct 4.3 10:51:29 10° NNW 10:53:24 13° N 10:55:18 10° NE visible
14 Oct 4.3 10:22:59 10° NNW 10:24:51 13° N 10:26:43 10° NE visible
15 Oct 4.3 09:55:19 12° NNW 09:56:16 13° N 09:58:05 10° NNE visible
16 Oct 4.5 09:27:59 13° N 09:27:59 13° N 09:29:28 10° NNE visible
16 Oct 3.8 11:03:43 10° NNW 11:06:42 23° NNE 11:09:41 10° ENE visible
17 Oct 4.9 09:00:38 11° NNE 09:00:38 11° NNE 09:00:49 10° NNE visible
17 Oct 3.9 10:35:12 10° NNW 10:38:06 21° NNE 10:41:00 10° ENE visible
18 Oct 4.0 10:07:30 14° NNW 10:09:28 20° NNE 10:12:16 10° ENE visible
19 Oct 4.0 09:40:12 18° N 09:40:48 19° NNE 09:43:30 10° ENE visible
20 Oct 4.4 09:12:57 17° NE 09:12:57 17° NE 09:14:43 10° ENE visible
20 Oct 2.1 10:47:09 11° NW 10:50:38 67° NE 10:54:17 10° ESE visible
21 Oct 5.2 08:45:46 11° ENE 08:45:46 11° ENE 08:45:54 10° ENE visible
21 Oct 2.2 10:19:57 24° NW 10:21:58 59° NE 10:25:36 10° ESE visible
22 Oct 2.4 09:52:50 48° N 09:53:15 52° NNE 09:56:52 10° ESE visible
